Weather History for Moab, UT

Change the Weather History Date:

Tuesday, August 6, 2013

  Actual Average Record
Temperature  
Mean Temperature 80 °F 80 °F  
Max Temperature 93 °F 95 °F 109 °F (1981)
Min Temperature 67 °F 65 °F 51 °F (1932)
Degree Days  
Heating Degree Days 0 0  
Month to date heating degree days 0 0  
Since 1 June heating degree days 0 17  
Since 1 July heating degree days 0 0  
Cooling Degree Days 15 15  
Month to date cooling degree days 85 90  
Year to date cooling degree days 1153 883  
Since 1 June cooling degree days 1073 819  
Growing Degree Days 30 (Base 50)    
Moisture  
Dew Point 49 °F    
Average Humidity 38    
Maximum Humidity 61    
Minimum Humidity 14    
Precipitation  
Precipitation T in 0.03 in 0.28 in (1929)
Month to date precipitation 0.65 0.16  
Year to date precipitation 3.34 4.70  
Sea Level Pressure  
Sea Level Pressure 29.85 in    
Wind  
Wind Speed 7 mph (ESE)    
Max Wind Speed 31 mph    
Max Gust Speed 39 mph    
Visibility 10 miles    
Events      
T = Trace of Precipitation, MM = Missing Value Source: NWS Daily Summary

Daily Weather History Graph

Daily Weather History Graph

Search for Another Location

Airport:

Trip Planner

Search our weather history database for the weather conditions in past years. The results will help you decide how hot, cold, wet, or windy it might be!

Date:

Astronomy

Aug. 06, 2013 Rise Set
Actual Time 6:25 AM MDT 8:24 PM MDT
Civil Twilight 5:55 AM MDT 8:53 PM MDT
Nautical Twilight 5:20 AM MDT 9:28 PM MDT
Astronomical Twilight 4:42 AM MDT 10:06 PM MDT
Moon 6:18 AM MDT (8/6) 8:01 PM MDT (8/6)
Length of Visible Light 14h 57m
Length of Day
13h 59m
Waning Crescent, 0% of the Moon is Illuminated
Aug 6
Waning Crescent
Aug 6
New
Aug 14
First Quarter
Aug 20
Full
Aug 28
Last Quarter

Hourly Weather History & Observations

Time (MDT) Temp. Heat Index Dew Point Humidity Pressure Visibility Wind Dir Wind Speed Gust Speed Precip Events Conditions
12:53 AM 72.0 °F - 55.9 °F 57% 29.83 in 10.0 mi Calm Calm - N/A   Clear
1:53 AM 71.1 °F - 57.0 °F 61% 29.82 in 10.0 mi Calm Calm - N/A   Clear
2:53 AM 69.1 °F - 55.9 °F 63% 29.82 in 10.0 mi Calm Calm - N/A   Clear
3:53 AM 69.1 °F - 55.0 °F 61% 29.82 in 10.0 mi SE 6.9 mph - N/A   Clear
4:53 AM 69.1 °F - 54.0 °F 58% 29.86 in 10.0 mi SSE 10.4 mph - N/A   Clear
5:53 AM 69.1 °F - 53.1 °F 57% 29.86 in 10.0 mi Calm Calm - N/A   Clear
6:53 AM 70.0 °F - 52.0 °F 53% 29.86 in 10.0 mi Variable 3.5 mph - N/A   Clear
7:53 AM 69.1 °F - 55.0 °F 61% 29.89 in 10.0 mi ESE 5.8 mph - N/A   Clear
8:53 AM 73.0 °F - 53.1 °F 49% 29.91 in 10.0 mi SE 4.6 mph - N/A   Clear
9:53 AM 75.9 °F - 54.0 °F 46% 29.91 in 10.0 mi ESE 5.8 mph - N/A   Clear
10:53 AM 80.1 °F 79.9 °F 53.1 °F 39% 29.91 in 10.0 mi ESE 5.8 mph - N/A   Clear
11:53 AM 82.9 °F - 51.1 °F 33% 29.90 in 10.0 mi SE 5.8 mph - N/A   Clear
12:53 PM 87.1 °F - 51.1 °F 29% 29.86 in 10.0 mi ENE 3.5 mph - N/A   Clear
1:53 PM 89.1 °F - 44.1 °F 21% 29.83 in 10.0 mi SSW 10.4 mph - N/A   Clear
2:53 PM 91.0 °F - 42.1 °F 18% 29.80 in 10.0 mi Variable 6.9 mph 17.3 mph N/A   Clear
3:53 PM 91.0 °F - 39.0 °F 16% 29.78 in 10.0 mi WSW 6.9 mph 20.7 mph N/A   Clear
4:53 PM 91.9 °F - 36.0 °F 14% 29.77 in 10.0 mi WNW 12.7 mph 16.1 mph N/A   Clear
5:53 PM 91.9 °F - 35.1 °F 13% 29.75 in 10.0 mi NNW 8.1 mph - N/A   Clear
6:49 PM 84.2 °F - 44.6 °F 25% 30.00 in 10.0 mi ENE 29.9 mph 39.1 mph N/A   Partly Cloudy
6:53 PM 84.0 °F - 45.0 °F 25% 29.82 in 10.0 mi ENE 23.0 mph 39.1 mph N/A   Partly Cloudy
7:53 PM 80.1 °F - 48.0 °F 32% 29.88 in 10.0 mi ESE 17.3 mph - 0.00 in   Overcast
8:53 PM 78.1 °F - 48.0 °F 35% 29.86 in 10.0 mi SE 12.7 mph - 0.00 in   Partly Cloudy
9:53 PM 77.0 °F - 48.9 °F 37% 29.86 in 10.0 mi ENE 4.6 mph - N/A   Clear
10:53 PM 75.0 °F - 50.0 °F 41% 29.86 in 10.0 mi NNE 6.9 mph - N/A   Clear
11:53 PM 73.0 °F - 52.0 °F 48% 29.87 in 10.0 mi ESE 5.8 mph - N/A   Clear